Teterboro, NJ

9:02 AM EST on November 19, 2019 (GMT -0500)
Teterboro

Weather History for KTEB - September, 2019

Change the Weather History Date:

Tuesday, September 10, 2019

  Actual Average Record
Temperature  
Mean Temperature 74 °F -  
Max Temperature 86 °F 77 °F 93 °F (2016)
Min Temperature 66 °F 59 °F 53 °F (2017)
Cooling Degree Days 9    
Growing Degree Days 24 (Base 50)    
Moisture  
Dew Point 64 °F    
Average Humidity 77    
Maximum Humidity 93    
Minimum Humidity 52    
Precipitation  
Precipitation 0.02 in - - ()
Sea Level Pressure  
Sea Level Pressure 30.30 in    
Wind  
Wind Speed 3 mph ()    
Max Wind Speed 13 mph    
Max Gust Speed 25 mph    
Visibility 9.9 miles    
Events Rain    
Averages and records for this station are not official NWS values.
T = Trace of Precipitation, MM = Missing Value Source: Averaged Metar Reports

Daily Weather History Graph

Daily Weather History Graph

Search for Another Location

Airport or City:

Astronomy

Sep. 10, 2019 Rise Set
Actual Time 6:31 AM EDT 7:14 PM EDT
Civil Twilight 6:03 AM EDT 7:41 PM EDT
Nautical Twilight 5:31 AM EDT 8:14 PM EDT
Astronomical Twilight 4:57 AM EDT 8:48 PM EDT
Moon 5:50 PM EDT (9/10) 2:53 AM EDT (9/10)
Length of Visible Light 13h 37m
Length of Day
12h 42m
Waxing Gibbous, 89% of the Moon is Illuminated
Sep 10
Waxing Gibbous
Sep 14
Full
Sep 21
Last Quarter
Sep 28
New
Oct 5
First Quarter

Hourly Weather History & Observations

Time (EDT) Temp. Heat Index Dew Point Humidity Pressure Visibility Wind Dir Wind Speed Gust Speed Precip Events Conditions
12:51 AM 66.9 °F - 62.1 °F 84% 30.28 in 10.0 mi Calm Calm - N/A   Clear
1:51 AM 66.9 °F - 62.1 °F 84% 30.28 in 10.0 mi Calm Calm - N/A   Partly Cloudy
2:51 AM 66.9 °F - 62.1 °F 84% 30.29 in 10.0 mi Calm Calm - N/A   Overcast
3:51 AM 66.0 °F - 62.1 °F 87% 30.29 in 10.0 mi Calm Calm - N/A   Mostly Cloudy
4:51 AM 66.0 °F - 62.1 °F 87% 30.30 in 10.0 mi NW 4.6 mph - N/A   Mostly Cloudy
5:51 AM 66.9 °F - 63.0 °F 87% 30.31 in 10.0 mi Calm Calm - N/A   Mostly Cloudy
6:14 AM 68.0 °F - 63.0 °F 84% 30.31 in 10.0 mi Calm Calm - N/A   Overcast
6:51 AM 68.0 °F - 64.0 °F 87% 30.33 in 7.0 mi Calm Calm - 0.01 in Rain Light Rain
7:34 AM 66.9 °F - 64.9 °F 93% 30.34 in 10.0 mi Calm Calm - 0.01 in   Overcast
7:51 AM 68.0 °F - 64.9 °F 90% 30.34 in 10.0 mi Calm Calm - 0.01 in   Overcast
8:01 AM 69.1 °F - 64.9 °F 87% 30.34 in 10.0 mi NNE 3.5 mph - N/A   Overcast
8:51 AM 70.0 °F - 66.0 °F 87% 30.35 in 10.0 mi Calm Calm - N/A   Overcast
9:41 AM 75.0 °F - 66.0 °F 73% 30.35 in 10.0 mi ESE 8.1 mph - N/A   Overcast
9:51 AM 73.0 °F - 64.9 °F 76% 30.35 in 10.0 mi ESE 4.6 mph 16.1 mph N/A   Overcast
10:21 AM 75.9 °F - 66.0 °F 71% 30.35 in 10.0 mi SSE 5.8 mph 25.3 mph N/A   Overcast
10:51 AM 73.0 °F - 64.9 °F 76% 30.35 in 10.0 mi South 4.6 mph - N/A   Overcast
11:51 AM 73.9 °F - 64.0 °F 71% 30.34 in 10.0 mi South 6.9 mph - N/A   Overcast
12:51 PM 75.0 °F - 64.0 °F 69% 30.33 in 10.0 mi South 9.2 mph - N/A   Overcast
1:51 PM 75.9 °F - 62.1 °F 62% 30.31 in 10.0 mi South 9.2 mph 24.2 mph N/A   Mostly Cloudy
2:51 PM 75.9 °F - 63.0 °F 64% 30.30 in 10.0 mi South 9.2 mph - N/A   Overcast
3:51 PM 77.0 °F - 63.0 °F 62% 30.29 in 10.0 mi SSE 10.4 mph - N/A   Mostly Cloudy
4:51 PM 79.0 °F - 64.0 °F 60% 30.27 in 10.0 mi SSE 6.9 mph - N/A   Partly Cloudy
5:51 PM 82.0 °F 83.1 °F 63.0 °F 52% 30.26 in 10.0 mi SSE 12.7 mph 21.9 mph N/A   Clear
6:51 PM 78.1 °F - 64.0 °F 62% 30.27 in 10.0 mi South 11.5 mph - N/A   Clear
7:51 PM 73.0 °F - 64.0 °F 73% 30.26 in 10.0 mi South 6.9 mph - N/A   Clear
8:51 PM 72.0 °F - 64.9 °F 78% 30.26 in 10.0 mi South 6.9 mph - N/A   Clear
9:51 PM 71.1 °F - 64.9 °F 81% 30.26 in 10.0 mi South 8.1 mph - N/A   Clear
10:51 PM 71.1 °F - 64.9 °F 81% 30.25 in 10.0 mi South 9.2 mph - N/A   Clear
11:51 PM 70.0 °F - 64.9 °F 84% 30.24 in 10.0 mi South 10.4 mph - N/A   Clear